Time,TemperatureF,DewpointF,PressureIn,WindDirection,WindDirectionDegrees,WindSpeedMPH,WindSpeedGustMPH,Humidity,HourlyPrecipIn,Conditions,Clouds,dailyrainin,SolarRadiationWatts/m^2,SoftwareType,DateUTC
2013-08-02 00:02:00,75.0,66.0,-100.00,SE,129,8.0,13.0,73,0.00,,,0.00,0.000000,,2013-08-02 05:02:00,
2013-08-02 00:32:00,74.0,64.0,-100.00,SE,124,9.0,15.0,71,0.00,,,0.00,0.000000,,2013-08-02 05:32:00,
2013-08-02 00:43:00,74.0,64.0,-100.00,SE,124,9.0,15.0,71,0.00,,,0.00,0.000000,,2013-08-02 05:43:00,
2013-08-02 00:53:00,74.0,64.0,-100.00,SE,124,9.0,15.0,71,0.00,,,0.00,0.000000,,2013-08-02 05:53:00,
2013-08-02 01:02:00,74.0,64.0,-100.00,SE,124,9.0,15.0,71,0.00,,,0.00,0.000000,,2013-08-02 06:02:00,
2013-08-02 01:33:00,72.0,68.0,-100.00,SE,125,7.0,18.0,86,0.00,,,0.00,0.000000,,2013-08-02 06:33:00,
2013-08-02 01:43:00,72.0,68.0,-100.00,SE,125,7.0,18.0,86,0.00,,,0.00,0.000000,,2013-08-02 06:43:00,
2013-08-02 01:52:00,72.0,68.0,-100.00,SE,125,7.0,18.0,86,0.00,,,0.00,0.000000,,2013-08-02 06:52:00,
2013-08-02 02:02:00,72.0,68.0,-100.00,SE,125,7.0,18.0,86,0.00,,,0.00,0.000000,,2013-08-02 07:02:00,
2013-08-02 02:33:00,71.0,68.0,-100.00,SE,138,8.0,15.0,90,0.00,,,0.00,0.000000,,2013-08-02 07:33:00,
2013-08-02 02:44:00,71.0,68.0,-100.00,SE,138,8.0,15.0,90,0.00,,,0.00,0.000000,,2013-08-02 07:44:00,
2013-08-02 02:53:00,71.0,68.0,-100.00,SE,138,8.0,15.0,90,0.00,,,0.00,0.000000,,2013-08-02 07:53:00,
2013-08-02 03:02:00,71.0,68.0,-100.00,SE,138,8.0,15.0,90,0.00,,,0.00,0.000000,,2013-08-02 08:02:00,
2013-08-02 03:33:00,70.0,65.0,-100.00,SE,144,6.0,15.0,83,0.00,,,0.00,0.000000,,2013-08-02 08:33:00,
2013-08-02 03:43:00,70.0,65.0,-100.00,SE,144,6.0,15.0,83,0.00,,,0.00,0.000000,,2013-08-02 08:43:00,
2013-08-02 03:54:00,70.0,65.0,-100.00,SE,144,6.0,15.0,83,0.00,,,0.00,0.000000,,2013-08-02 08:54:00,
2013-08-02 04:02:00,70.0,65.0,-100.00,SE,144,6.0,15.0,83,0.00,,,0.00,0.000000,,2013-08-02 09:02:00,
2013-08-02 04:33:00,69.0,63.0,-100.00,SE,126,8.0,12.0,80,0.00,,,0.00,0.000000,,2013-08-02 09:33:00,
2013-08-02 04:44:00,69.0,63.0,-100.00,SE,126,8.0,12.0,80,0.00,,,0.00,0.000000,,2013-08-02 09:44:00,
2013-08-02 04:53:00,69.0,63.0,-100.00,SE,126,8.0,12.0,80,0.00,,,0.00,0.000000,,2013-08-02 09:53:00,
2013-08-02 05:03:00,69.0,63.0,-100.00,SE,126,8.0,12.0,80,0.00,,,0.00,0.000000,,2013-08-02 10:03:00,
2013-08-02 05:33:00,68.0,65.0,-100.00,SE,137,8.0,12.0,91,0.00,,,0.00,0.000000,,2013-08-02 10:33:00,
2013-08-02 05:44:00,68.0,65.0,-100.00,SE,137,8.0,12.0,91,0.00,,,0.00,0.000000,,2013-08-02 10:44:00,
2013-08-02 05:52:00,68.0,65.0,-100.00,SE,137,8.0,12.0,91,0.00,,,0.00,0.000000,,2013-08-02 10:52:00,
2013-08-02 06:02:00,68.0,65.0,-100.00,SE,137,8.0,12.0,91,0.00,,,0.00,0.000000,,2013-08-02 11:02:00,
2013-08-02 06:43:00,67.0,65.0,-100.00,SSE,158,8.0,11.0,92,0.00,,,0.00,0.000000,,2013-08-02 11:43:00,
2013-08-02 06:52:00,67.0,65.0,-100.00,SSE,158,8.0,11.0,92,0.00,,,0.00,0.000000,,2013-08-02 11:52:00,
2013-08-02 07:02:00,67.0,65.0,-100.00,SSE,158,8.0,11.0,92,0.00,,,0.00,0.000000,,2013-08-02 12:02:00,
2013-08-02 07:43:00,67.0,64.0,-100.00,SE,146,7.0,10.0,90,0.00,,,0.00,19.000000,,2013-08-02 12:43:00,
2013-08-02 07:52:00,67.0,64.0,-100.00,SE,146,7.0,10.0,90,0.00,,,0.00,19.000000,,2013-08-02 12:52:00,
2013-08-02 08:02:00,67.0,64.0,-100.00,SE,146,7.0,10.0,90,0.00,,,0.00,19.000000,,2013-08-02 13:02:00,
2013-08-02 08:33:00,69.0,67.0,-100.00,SE,145,7.0,10.0,92,0.00,,,0.00,120.000000,,2013-08-02 13:33:00,
2013-08-02 08:43:00,69.0,67.0,-100.00,SE,145,7.0,10.0,92,0.00,,,0.00,120.000000,,2013-08-02 13:43:00,
2013-08-02 08:52:00,69.0,67.0,-100.00,SE,145,7.0,10.0,92,0.00,,,0.00,120.000000,,2013-08-02 13:52:00,
2013-08-02 09:02:00,69.0,67.0,-100.00,SE,145,7.0,10.0,92,0.00,,,0.00,120.000000,,2013-08-02 14:02:00,
2013-08-02 09:32:00,70.0,68.0,-100.00,SE,146,8.0,11.0,93,0.00,,,0.00,202.000000,,2013-08-02 14:32:00,
2013-08-02 09:43:00,70.0,68.0,-100.00,SE,146,8.0,11.0,93,0.00,,,0.00,202.000000,,2013-08-02 14:43:00,
2013-08-02 09:53:00,70.0,68.0,-100.00,SE,146,8.0,11.0,93,0.00,,,0.00,202.000000,,2013-08-02 14:53:00,
2013-08-02 10:03:00,70.0,68.0,-100.00,SE,146,8.0,11.0,93,0.00,,,0.00,202.000000,,2013-08-02 15:03:00,
2013-08-02 10:32:00,71.0,67.0,-100.00,SE,139,7.0,12.0,86,0.00,,,0.00,235.000000,,2013-08-02 15:32:00,
2013-08-02 10:43:00,71.0,67.0,-100.00,SE,139,7.0,12.0,86,0.00,,,0.00,235.000000,,2013-08-02 15:43:00,
2013-08-02 10:52:00,71.0,67.0,-100.00,SE,139,7.0,12.0,86,0.00,,,0.00,235.000000,,2013-08-02 15:52:00,
2013-08-02 11:02:00,71.0,67.0,-100.00,SE,139,7.0,12.0,86,0.00,,,0.00,235.000000,,2013-08-02 16:02:00,
2013-08-02 11:32:00,72.0,67.0,-100.00,SE,146,8.0,12.0,83,0.00,,,-99.99,336.000000,,2013-08-02 16:32:00,
2013-08-02 11:43:00,72.0,67.0,-100.00,SE,146,8.0,12.0,83,0.00,,,-99.99,336.000000,,2013-08-02 16:43:00,
2013-08-02 11:53:00,72.0,67.0,-100.00,SE,146,8.0,12.0,83,0.00,,,-99.99,336.000000,,2013-08-02 16:53:00,
2013-08-02 12:02:00,72.0,67.0,-100.00,SE,146,8.0,12.0,83,0.00,,,-99.99,336.000000,,2013-08-02 17:02:00,
2013-08-02 12:35:00,74.0,68.0,-100.00,SSE,159,9.0,12.0,82,0.00,,,0.00,572.000000,,2013-08-02 17:35:00,
2013-08-02 12:43:00,74.0,68.0,-100.00,SSE,159,9.0,12.0,82,0.00,,,0.00,572.000000,,2013-08-02 17:43:00,
2013-08-02 12:52:00,74.0,68.0,-100.00,SSE,159,9.0,12.0,82,0.00,,,0.00,572.000000,,2013-08-02 17:52:00,
2013-08-02 13:02:00,74.0,68.0,-100.00,SSE,159,9.0,12.0,82,0.00,,,0.00,572.000000,,2013-08-02 18:02:00,
2013-08-02 13:32:00,74.0,69.0,-100.00,SSE,156,9.0,12.0,85,0.00,,,0.00,569.000000,,2013-08-02 18:32:00,
2013-08-02 13:43:00,74.0,69.0,-100.00,SSE,156,9.0,12.0,85,0.00,,,0.00,569.000000,,2013-08-02 18:43:00,
2013-08-02 13:52:00,74.0,69.0,-100.00,SSE,156,9.0,12.0,85,0.00,,,0.00,569.000000,,2013-08-02 18:52:00,
2013-08-02 14:02:00,74.0,69.0,-100.00,SSE,156,9.0,12.0,85,0.00,,,0.00,569.000000,,2013-08-02 19:02:00,
2013-08-02 14:32:00,76.0,71.0,-100.00,SE,138,9.0,14.0,84,0.00,,,0.00,570.000000,,2013-08-02 19:32:00,
2013-08-02 14:43:00,76.0,71.0,-100.00,SE,138,9.0,14.0,84,0.00,,,0.00,570.000000,,2013-08-02 19:43:00,
2013-08-02 14:52:00,76.0,71.0,-100.00,SE,138,9.0,14.0,84,0.00,,,0.00,570.000000,,2013-08-02 19:52:00,
2013-08-02 15:02:00,76.0,71.0,-100.00,SE,138,9.0,14.0,84,0.00,,,0.00,570.000000,,2013-08-02 20:02:00,
2013-08-02 15:33:00,76.0,72.0,-100.00,SE,134,8.0,13.0,86,0.00,,,0.00,494.000000,,2013-08-02 20:33:00,
2013-08-02 15:43:00,76.0,72.0,-100.00,SE,134,8.0,13.0,86,0.00,,,0.00,494.000000,,2013-08-02 20:43:00,
2013-08-02 15:52:00,76.0,72.0,-100.00,SE,134,8.0,13.0,86,0.00,,,0.00,494.000000,,2013-08-02 20:52:00,
2013-08-02 16:03:00,76.0,72.0,-100.00,SE,134,8.0,13.0,86,0.00,,,0.00,494.000000,,2013-08-02 21:03:00,
2013-08-02 16:33:00,77.0,72.0,-100.00,SE,142,8.0,12.0,85,0.00,,,0.00,427.000000,,2013-08-02 21:33:00,
2013-08-02 16:43:00,77.0,72.0,-100.00,SE,142,8.0,12.0,85,0.00,,,0.00,427.000000,,2013-08-02 21:43:00,
2013-08-02 16:53:00,77.0,72.0,-100.00,SE,142,8.0,12.0,85,0.00,,,0.00,427.000000,,2013-08-02 21:53:00,
2013-08-02 17:02:00,77.0,72.0,-100.00,SE,142,8.0,12.0,85,0.00,,,0.00,427.000000,,2013-08-02 22:02:00,
2013-08-02 17:33:00,78.0,73.0,-100.00,SSE,148,9.0,12.0,86,0.00,,,0.00,380.000000,,2013-08-02 22:33:00,
2013-08-02 17:43:00,78.0,73.0,-100.00,SSE,148,9.0,12.0,86,0.00,,,0.00,380.000000,,2013-08-02 22:43:00,
2013-08-02 17:52:00,78.0,73.0,-100.00,SSE,148,9.0,12.0,86,0.00,,,0.00,380.000000,,2013-08-02 22:52:00,
2013-08-02 18:02:00,78.0,73.0,-100.00,SSE,148,9.0,12.0,86,0.00,,,0.00,380.000000,,2013-08-02 23:02:00,
2013-08-02 18:32:00,80.0,75.0,-100.00,SE,141,8.0,11.0,85,0.00,,,0.00,350.000000,,2013-08-02 23:32:00,
2013-08-02 18:44:00,80.0,75.0,-100.00,SE,141,8.0,11.0,85,0.00,,,0.00,350.000000,,2013-08-02 23:44:00,
2013-08-02 18:53:00,80.0,75.0,-100.00,SE,141,8.0,11.0,85,0.00,,,0.00,350.000000,,2013-08-02 23:53:00,
2013-08-02 19:02:00,80.0,75.0,-100.00,SE,141,8.0,11.0,85,0.00,,,0.00,350.000000,,2013-08-03 00:02:00,
2013-08-02 19:33:00,80.0,75.0,-100.00,SSE,150,7.0,12.0,86,0.00,,,0.00,247.000000,,2013-08-03 00:33:00,
2013-08-02 19:43:00,80.0,75.0,-100.00,SSE,150,7.0,12.0,86,0.00,,,0.00,247.000000,,2013-08-03 00:43:00,
2013-08-02 19:52:00,80.0,75.0,-100.00,SSE,150,7.0,12.0,86,0.00,,,0.00,247.000000,,2013-08-03 00:52:00,
2013-08-02 20:02:00,80.0,75.0,-100.00,SSE,150,7.0,12.0,86,0.00,,,0.00,247.000000,,2013-08-03 01:02:00,
2013-08-02 20:32:00,79.0,75.0,-100.00,SSE,155,7.0,12.0,87,0.00,,,0.00,69.000000,,2013-08-03 01:32:00,
2013-08-02 20:42:00,79.0,75.0,-100.00,SSE,155,7.0,12.0,87,0.00,,,0.00,69.000000,,2013-08-03 01:42:00,
2013-08-02 20:53:00,79.0,75.0,-100.00,SSE,155,7.0,12.0,87,0.00,,,0.00,69.000000,,2013-08-03 01:53:00,
2013-08-02 21:02:00,79.0,75.0,-100.00,SSE,155,7.0,12.0,87,0.00,,,0.00,69.000000,,2013-08-03 02:02:00,
2013-08-02 21:32:00,78.0,74.0,-100.00,SSE,167,9.0,12.0,89,0.00,,,0.00,2.000000,,2013-08-03 02:32:00,
2013-08-02 21:43:00,78.0,74.0,-100.00,SSE,167,9.0,12.0,89,0.00,,,0.00,2.000000,,2013-08-03 02:43:00,
2013-08-02 21:52:00,78.0,74.0,-100.00,SSE,167,9.0,12.0,89,0.00,,,0.00,2.000000,,2013-08-03 02:52:00,
2013-08-02 22:02:00,78.0,74.0,-100.00,SSE,167,9.0,12.0,89,0.00,,,0.00,2.000000,,2013-08-03 03:02:00,
2013-08-02 22:32:00,77.0,74.0,-100.00,SSE,156,8.0,12.0,91,0.00,,,0.00,0.000000,,2013-08-03 03:32:00,
2013-08-02 22:43:00,77.0,74.0,-100.00,SSE,156,8.0,12.0,91,0.00,,,0.00,0.000000,,2013-08-03 03:43:00,
2013-08-02 22:53:00,77.0,74.0,-100.00,SSE,156,8.0,12.0,91,0.00,,,0.00,0.000000,,2013-08-03 03:53:00,
2013-08-02 23:02:00,77.0,74.0,-100.00,SSE,156,8.0,12.0,91,0.00,,,0.00,0.000000,,2013-08-03 04:02:00,
2013-08-02 23:33:00,77.0,76.0,-100.00,SSE,153,8.0,11.0,96,0.00,,,0.00,0.000000,,2013-08-03 04:33:00,
2013-08-02 23:43:00,77.0,76.0,-100.00,SSE,153,8.0,11.0,96,0.00,,,0.00,0.000000,,2013-08-03 04:43:00,
2013-08-02 23:53:00,77.0,76.0,-100.00,SSE,153,8.0,11.0,96,0.00,,,0.00,0.000000,,2013-08-03 04:53:00,